| time (UTC) | temp F | wind direction | speed MPH | gust MPH | rain 1hr in | rain 24hr in | rain mn in | humidity % | barometer mb |
| 20260506170046 | 42 | 34 | 4.0 | 9.0 | 0.00 | 0.77 | 0.61 | 95 | 1009.4 |
| 20260506164548 | 42 | 355 | 7.0 | 11.0 | 0.00 | 0.77 | 0.61 | 95 | 1009.6 |
| 20260506163044 | 42 | 5 | 7.0 | 10.0 | 0.00 | 0.77 | 0.61 | 95 | 1009.4 |
| 20260506161558 | 42 | 19 | 7.0 | 10.0 | 0.01 | 0.77 | 0.61 | 95 | 1009.5 |
| 20260506160047 | 42 | 32 | 7.0 | 10.0 | 0.01 | 0.77 | 0.61 | 95 | 1009.4 |
| 20260506154550 | 42 | 30 | 8.0 | 10.0 | 0.01 | 0.77 | 0.61 | 96 | 1009.4 |
| 20260506153051 | 41 | 36 | 7.0 | 11.0 | 0.01 | 0.77 | 0.61 | 95 | 1009.3 |
| 20260506151548 | 41 | 30 | 9.0 | 12.0 | 0.00 | 0.76 | 0.60 | 95 | 1009.4 |
| 20260506150045 | 41 | 28 | 9.0 | 11.0 | 0.00 | 0.76 | 0.60 | 95 | 1009.2 |
| 20260506144545 | 41 | 42 | 9.0 | 13.0 | 0.01 | 0.76 | 0.60 | 95 | 1009.0 |
| 20260506143045 | 42 | 57 | 8.0 | 11.0 | 0.01 | 0.76 | 0.60 | 95 | 1008.9 |
| 20260506141546 | 42 | 44 | 7.0 | 11.0 | 0.02 | 0.76 | 0.60 | 95 | 1008.9 |
| 20260506140045 | 42 | 57 | 6.0 | 10.0 | 0.02 | 0.76 | 0.60 | 95 | 1009.0 |
| 20260506134549 | 42 | 43 | 5.0 | 9.0 | 0.01 | 0.75 | 0.58 | 95 | 1008.9 |
| 20260506133041 | 43 | 77 | 5.0 | 10.0 | 0.02 | 0.75 | 0.58 | 95 | 1008.8 |
| 20260506131552 | 43 | 82 | 6.0 | 11.0 | 0.01 | 0.74 | 0.58 | 95 | 1008.8 |
| 20260506130100 | 43 | 76 | 4.0 | 8.0 | 0.02 | 0.74 | 0.58 | 95 | 1008.8 |
| 20260506124553 | 43 | 72 | 4.0 | 10.0 | 0.03 | 0.74 | 0.58 | 95 | 1008.8 |
| 20260506123047 | 43 | 80 | 5.0 | 9.0 | 0.02 | 0.73 | 0.57 | 95 | 1008.7 |
| 20260506121541 | 43 | 92 | 6.0 | 11.0 | 0.03 | 0.73 | 0.57 | 95 | 1008.7 |
| 20260506120042 | 43 | 88 | 5.0 | 12.0 | 0.02 | 0.72 | 0.56 | 95 | 1009.0 |
| 20260506114546 | 43 | 103 | 5.0 | 11.0 | 0.03 | 0.71 | 0.55 | 95 | 1008.6 |
| 20260506113052 | 43 | 84 | 7.0 | 12.0 | 0.05 | 0.71 | 0.55 | 95 | 1008.5 |
| 20260506111542 | 42 | 81 | 6.0 | 12.0 | 0.07 | 0.70 | 0.54 | 95 | 1008.7 |
| 20260506110052 | 43 | 103 | 7.0 | 12.0 | 0.09 | 0.70 | 0.54 | 95 | 1008.5 |
| 20260506104552 | 43 | 86 | 5.0 | 10.0 | 0.09 | 0.68 | 0.52 | 95 | 1008.8 |
| 20260506103053 | 43 | 72 | 7.0 | 12.0 | 0.06 | 0.65 | 0.49 | 95 | 1008.9 |
| 20260506101555 | 43 | 78 | 6.0 | 10.0 | 0.05 | 0.63 | 0.47 | 95 | 1009.1 |
| 20260506100101 | 43 | 86 | 5.0 | 11.0 | 0.04 | 0.61 | 0.45 | 95 | 1009.1 |
| 20260506094539 | 43 | 95 | 6.0 | 11.0 | 0.03 | 0.58 | 0.43 | 95 | 1008.9 |
| 20260506093044 | 43 | 95 | 6.0 | 12.0 | 0.05 | 0.58 | 0.43 | 95 | 1008.5 |
| 20260506091546 | 43 | 90 | 7.0 | 11.0 | 0.05 | 0.58 | 0.42 | 95 | 1008.3 |
| 20260506090046 | 43 | 95 | 4.0 | 10.0 | 0.06 | 0.57 | 0.41 | 95 | 1008.8 |
| 20260506084604 | 43 | 82 | 8.0 | 13.0 | 0.07 | 0.56 | 0.40 | 95 | 1008.7 |
| 20260506083041 | 43 | 86 | 4.0 | 10.0 | 0.09 | 0.54 | 0.38 | 95 | 1009.2 |
| 20260506081552 | 43 | 78 | 4.0 | 10.0 | 0.10 | 0.52 | 0.37 | 95 | 1009.2 |
| 20260506073047 | 43 | 90 | 7.0 | 12.0 | 0.10 | 0.45 | 0.29 | 95 | 1008.9 |
| 20260506071539 | 43 | 85 | 6.0 | 12.0 | 0.11 | 0.43 | 0.27 | 95 | 1008.7 |
| 20260506061542 | 44 | 62 | 8.0 | 11.0 | 0.08 | 0.32 | 0.16 | 95 | 1009.6 |
| 20260506044637 | 46 | 96 | 3.0 | 6.0 | 0.05 | 0.20 | 0.04 | 94 | 1009.8 |
| 20260506043047 | 46 | 92 | 6.0 | 10.0 | 0.04 | 0.19 | 0.03 | 94 | 1009.4 |
| 20260506041558 | 46 | 91 | 3.0 | 6.0 | 0.03 | 0.18 | 0.02 | 94 | 1009.8 |
| 20260506040047 | 46 | 52 | 3.0 | 6.0 | 0.01 | 0.16 | 0.00 | 94 | 1009.8 |
| 20260506034619 | 46 | 0 | 0.0 | 0.0 | 0.00 | 0.15 | 0.15 | 93 | 1010.2 |
| 20260506033043 | 46 | 0 | 1.0 | 3.0 | 0.01 | 0.15 | 0.15 | 94 | 1009.7 |
| 20260506031544 | 46 | 0 | 1.0 | 4.0 | 0.02 | 0.15 | 0.15 | 93 | 1009.8 |
| 20260506030044 | 46 | 223 | 1.0 | 3.0 | 0.03 | 0.15 | 0.15 | 93 | 1010.0 |
| 20260506024548 | 46 | 223 | 2.0 | 5.0 | 0.04 | 0.15 | 0.15 | 93 | 1010.1 |
| 20260506023101 | 46 | 223 | 3.0 | 5.0 | 0.03 | 0.14 | 0.14 | 93 | 1010.3 |
| 20260506021543 | 46 | 223 | 0.0 | 3.0 | 0.03 | 0.13 | 0.13 | 92 | 1010.4 |
| 20260506020047 | 46 | 0 | 0.0 | 0.0 | 0.02 | 0.12 | 0.12 | 92 | 1010.4 |
| 20260506014544 | 46 | 0 | 0.0 | 0.0 | 0.03 | 0.11 | 0.11 | 92 | 1010.4 |
| 20260506013046 | 45 | 0 | 0.0 | 0.0 | 0.04 | 0.11 | 0.11 | 92 | 1010.2 |
| 20260506011603 | 45 | 0 | 0.0 | 2.0 | 0.03 | 0.10 | 0.10 | 91 | 1009.9 |
| 20260506010056 | 45 | 0 | 0.0 | 4.0 | 0.04 | 0.10 | 0.10 | 91 | 1009.7 |
| 20260506004602 | 45 | 223 | 2.0 | 4.0 | 0.02 | 0.08 | 0.08 | 91 | 1009.5 |
| 20260506003056 | 45 | 223 | 2.0 | 4.0 | 0.02 | 0.07 | 0.07 | 91 | 1009.3 |
| 20260506001552 | 45 | 240 | 3.0 | 8.0 | 0.04 | 0.07 | 0.07 | 90 | 1009.1 |
| 20260506000047 | 45 | 280 | 7.0 | 10.0 | 0.04 | 0.06 | 0.06 | 90 | 1009.0 |
| 20260505234614 | 45 | 292 | 7.0 | 12.0 | 0.06 | 0.06 | 0.06 | 90 | 1009.1 |
| 20260505233045 | 45 | 298 | 10.0 | 13.0 | 0.05 | 0.05 | 0.05 | 90 | 1009.3 |
| 20260505231548 | 45 | 287 | 9.0 | 13.0 | 0.03 | 0.03 | 0.03 | 89 | 1008.9 |
| 20260505230046 | 45 | 287 | 11.0 | 16.0 | 0.02 | 0.02 | 0.02 | 88 | 1008.9 |
| 20260505224546 | 46 | 306 | 14.0 | 19.0 | 0.00 | 0.00 | 0.00 | 86 | 1008.6 |
| 20260505223039 | 47 | 281 | 12.0 | 18.0 | 0.00 | 0.00 | 0.00 | 86 | 1008.5 |
| 20260505221544 | 48 | 281 | 12.0 | 19.0 | 0.00 | 0.00 | 0.00 | 84 | 1007.8 |
| 20260505220059 | 50 | 288 | 13.0 | 17.0 | 0.00 | 0.00 | 0.00 | 83 | 1007.5 |
| 20260505214543 | 50 | 281 | 12.0 | 16.0 | 0.00 | 0.00 | 0.00 | 84 | 1006.8 |
| 20260505213041 | 51 | 292 | 13.0 | 19.0 | 0.00 | 0.00 | 0.00 | 82 | 1006.3 |
| 20260505211551 | 53 | 279 | 12.0 | 14.0 | 0.00 | 0.00 | 0.00 | 82 | 1006.1 |
| 20260505210045 | 54 | 275 | 10.0 | 14.0 | 0.00 | 0.00 | 0.00 | 81 | 1005.7 |
| 20260505204547 | 53 | 286 | 9.0 | 12.0 | 0.00 | 0.00 | 0.00 | 83 | 1005.4 |
| 20260505203042 | 53 | 286 | 11.0 | 13.0 | 0.00 | 0.00 | 0.00 | 84 | 1005.4 |
| 20260505201547 | 51 | 270 | 10.0 | 14.0 | 0.00 | 0.00 | 0.00 | 87 | 1005.4 |
| 20260505200045 | 51 | 283 | 11.0 | 15.0 | 0.00 | 0.00 | 0.00 | 86 | 1005.5 |
| 20260505194547 | 51 | 285 | 12.0 | 16.0 | 0.00 | 0.00 | 0.00 | 85 | 1005.3 |
| 20260505193047 | 51 | 275 | 12.0 | 22.0 | 0.00 | 0.00 | 0.00 | 84 | 1005.0 |
| 20260505191552 | 55 | 314 | 22.0 | 29.0 | 0.00 | 0.00 | 0.00 | 76 | 1004.8 |
| 20260505190042 | 64 | 294 | 20.0 | 32.0 | 0.00 | 0.00 | 0.00 | 66 | 1004.3 |
| 20260505184545 | 67 | 263 | 19.0 | 31.0 | 0.00 | 0.00 | 0.00 | 63 | 1004.1 |
| 20260505183045 | 67 | 227 | 15.0 | 27.0 | 0.00 | 0.00 | 0.00 | 64 | 1004.0 |
| 20260505181546 | 66 | 251 | 25.0 | 34.0 | 0.00 | 0.00 | 0.00 | 64 | 1004.2 |
| 20260505180052 | 66 | 244 | 20.0 | 33.0 | 0.00 | 0.00 | 0.00 | 63 | 1003.8 |
| 20260505174606 | 67 | 248 | 21.0 | 31.0 | 0.00 | 0.00 | 0.00 | 65 | 1004.2 |
| 20260505173046 | 66 | 271 | 17.0 | 27.0 | 0.00 | 0.00 | 0.00 | 67 | 1003.7 |
| 20260505171546 | 64 | 253 | 13.0 | 30.0 | 0.00 | 0.00 | 0.00 | 69 | 1003.6 |